CZ-6A DEB

Satellite information

Favourite Embed

Satellite Type and Status

DEBRISIN ORBIT

Key statistics

Satellite CZ-6A DEB at a glance.

Uptime

1129

Days in orbit

Revolutions

≈ 14.2

Per day

Orbit

SSO

Sun Synchronous Orbit

Inclination

98.8

Latest

Satellite identification and parameters

Extended collection of information and parameters for CZ-6A DEB.

Object identification

Identified? True

Debris? True

Object name: CZ-6A DEB

International designator: 2022-151AGW

Object number (NORAD): 56670

Object ID (CCSDS): 56670

Country: PEOPLES REPUBLIC OF CHINA (PRC)

Current information (Y/N): Y

RCS size: SMALL

Orbital parameters

Period: 101.71 minutes

Inclination: 98.8027 deg

SMA: 7217.768 km

Apoapsis: 872.206 km

Periapsis: 807.06 km

RAAN: 342.4258 deg

Eccentricy: 0.0045129

Argument of periapsis: 104.1279 deg

Mean anomaly: 256.4916 deg

Mean motion: 14.15788478 rev/day

Mean motion (dot): 0.00002988 rev/day2

B* drag term: 0.0015274 1/REarth

Two-line elements (TLE)

Creation date: Dec. 9, 2025, 3:16 p.m.

Reference frame: TEME

Reference center: EARTH

Epoch: Dec. 9, 2025, 6:36 a.m. UTC

TLE line 0: 0 CZ-6A DEB

TLE line 1: 1 56670U 22151AGW 25343.27531243 .00002988 00000-0 15274-2 0 9997

TLE line 2: 2 56670 98.8027 342.4258 0045129 104.1279 256.4916 14.15788478135693

Live tracking on map

Real-time ground track for satellite CZ-6A DEB.

In-orbit conjunctions

A list of the most updated potential collisions computed for object CZ-6A DEB.

Target Orbit TCA Probability of collision Miss distance Type
ALEXIS LEO 2025-02-20 07:18:55 0.0001211571 868.0 (m) PAYLOAD

Associated space launch

Chinese satellite reported for atmospheric/ocean/environmental/spatial parameter research purposes, details TBD.

CZ-6A DEB was lifted into orbit during the mission ‘Long March 6A | Yunhai 3’, on board a Long March 6A space rocket.

The launch took place on Nov. 11, 2022, 10:52 p.m. from Launch Complex 9A.

For more information about the launch, click the button.

Launch to space Long March 6A | Yunhai 3
Long March 6A | Yunhai 3

Agency: N/A

Status: Launch Successful

Launch date: Nov. 11, 2022, 10:52 p.m. UTC

Rocket: Long March 6A

Launch pad: Launch Complex 9A

Location: Taiyuan Satellite Launch Center, People's Republic of China

...

Latest news about this satellite

There are no fresh news available about this satellite. Check back as we update our databases every day.


Newsletter sign-up

Weekly statistics, charts and insights to help you stay on top of the space industry.